Flag for Germany Weather past 2 weeks in Hameln, Lower Saxony, Germany

Now
57 °F

Cool.


Feels Like: 57 °F
Forecast: 51 / 78 °F
Wind: 3 mph from Southwest

Location: Bueckeburg

Current Time: Aug 2, 2015 at 1:06:19 AM

Latest Report: Aug 2, 2015 at 12:20 AM


Visibility: 5 mi

Pressure: 30.04 "Hg

Humidity: 82%

Dew point: 52 °F

Location of HamelnLocation

Historic Weather in Hameln — Graph

°F

Hameln temperature yesterday

Maximum temperature yesterday: 75 °F (at 3:20 PM)
Minimum temperature yesterday: 46 °F (at 1:20 AM)
Average temperature yesterday: 61 °F

Past Weeks' High & Low Weather Summary

 TemperatureHumidityPressure
High79 °F (Jul 21, 2:20 PM)100% (Jul 19, 10:20 AM)30.12 "Hg (Jul 19, 10:20 AM)
Low46 °F (Jul 31, 4:20 AM)36% (Aug 1, 3:20 PM)29.47 "Hg (Jul 25, 12:20 PM)
Average63 °F73%29.85 "Hg
* Reported Jul 17 11:20 PM — Aug 1 11:20 PM, Hameln, Weather by CustomWeather, © 2015

Note: Actual official high and low records may vary slightly from our data, if they occured in-between our weather recording intervals... More about our weather records

Advertising

Hameln weather history for previous 24 hours

 ConditionsComfort  
Time TempWeatherWind HumidityBarometerVisibility
11:20 PM
Sat, Aug 1
59 °FCool.3 mph82%30.04 "Hg6 mi
10:20 PM63 °FMild.1 mph73%30.04 "Hg5 mi
9:20 PM70 °FMild.3 mph50%30.01 "Hg6 mi
8:20 PM72 °FMild.6 mph47%29.98 "Hg6 mi
7:20 PM75 °FMild.6 mph39%29.95 "HgN/A
6:20 PM75 °FMild.1 mph39%29.95 "Hg5 mi
5:20 PM75 °FMild.3 mph36%29.98 "Hg6 mi
4:20 PM75 °FMild.7 mph39%29.98 "Hg4 mi
3:20 PM75 °FMild.3 mph36%29.98 "Hg4 mi
2:20 PM73 °FMild.2 mph38%29.98 "Hg4 mi
1:20 PM72 °FMild.7 mph41%30.01 "Hg5 mi
12:20 PM68 °FMild.6 mph46%30.01 "HgN/A
11:20 AM68 °FMild.9 mph43%30.01 "HgN/A
10:20 AM64 °FMild.2 mph52%30.01 "HgN/A
9:20 AM59 °FCool.1 mph68%30.04 "HgN/A
8:20 AM52 °FCool.No wind88%30.04 "HgN/A
7:20 AM48 °FCool.1 mph94%30.04 "HgN/A
6:20 AM46 °FCool.No wind93%30.04 "HgN/A
5:20 AM46 °FPassing clouds.1 mph93%30.04 "HgN/A
4:20 AM46 °FOvercast.1 mph93%30.04 "HgN/A
3:20 AM46 °FOvercast.No wind93%30.07 "HgN/A
2:20 AM46 °FPassing clouds.1 mph93%30.07 "HgN/A
1:20 AM46 °FPassing clouds.1 mph93%30.07 "HgN/A
Weather by CustomWeather, © 2015

See weather overviewHow to use our weather pages